[[{"header":{"parameterUnit":"m.s-1","parameterCategory":1,"la1":30.2991,"la2":30.254,"lo1":-89.0895,"lo2":-89.0444,"dx":0.0017,"dy":0.0017,"nx":28,"ny":28,"refTime":"2023-01-30T15:00:00:Z","depth":0,"parameterNumber":2,"parameterNumberName":"U-component_of_WINDS"},"data":[0,0,0,0,0,0,0,0,0,0,0,0,0,0,0,0,0,0,0,0,0,0,0,0,0,0,0,0,0,0,0,0,0,0,0,0,0,0,0,0,0,0,0,0,0,0,0,0,0,0,0,0,0,0,0,0,0,0,-0.807,-0.807,0,-0.8025,-0.8024,-0.8024,-0.8015,-0.8015,-0.8016,-0.8016,-0.7967,-0.7966,-0.7964,0,0,0,0,0,0,0,0,0,0,0,0,0,-0.8148,-0.8147,-0.807,-0.807,-0.8069,-0.8025,-0.8024,-0.8024,-0.8015,-0.8015,-0.8016,-0.8016,-0.7968,-0.7966,-0.7964,0,0,0,0,0,0,0,0,0,0,0,0,0,-0.811,-0.8146,-0.807,-0.8059,-0.8058,-0.8025,-0.8024,-0.8024,-0.8015,-0.8015,-0.8016,-0.8016,-0.7968,-0.7966,-0.7964,-0.7938,0,0,-0.7956,-0.7955,0,0,0,0,0,0,0,0,-0.8112,-0.8107,-0.8062,-0.806,-0.8059,-0.8026,-0.8034,-0.7995,-0.8015,-0.8031,-0.8016,-0.8017,-0.7986,-0.7982,-0.7973,-0.7935,-0.7933,-0.7956,-0.7954,-0.7953,-0.7953,0,0,0,0,0,0,0,-0.8114,-0.8109,-0.8052,-0.8061,-0.8059,-0.8056,-0.8052,-0.8026,-0.8006,-0.803,-0.8029,-0.8024,-0.7986,-0.7975,-0.7971,-0.7933,-0.7956,-0.7954,-0.7952,-0.7951,-0.7873,-0.7872,0,0,0,0,0,0,-0.8119,-0.8111,-0.8054,-0.8051,-0.8087,-0.8055,-0.8049,-0.8036,-0.8006,-0.8003,-0.8023,-0.8024,-0.7979,-0.7974,-0.797,-0.7937,-0.7953,-0.7951,-0.795,-0.7873,-0.7872,-0.7872,0,0,0,0,0,0,-0.8121,-0.8114,-0.8056,-0.8081,-0.8073,-0.8053,-0.8038,-0.8035,-0.8024,-0.8002,-0.7998,-0.8017,-0.7979,-0.7973,-0.7946,-0.7936,-0.795,-0.7948,-0.7874,-0.7873,-0.7872,-0.7873,0,0,0,0,0,0,-0.8123,-0.8115,-0.8105,-0.8081,-0.8072,-0.8033,-0.8037,-0.8034,-0.802,-0.802,-0.7994,-0.799,-0.7979,-0.795,-0.7944,-0.7933,-0.7946,-0.7875,-0.7873,-0.7872,-0.7874,-0.7872,-0.7871,0,0,0,0,0,-0.8126,-0.8106,-0.8105,-0.8098,-0.8059,-0.8032,-0.8027,-0.8015,-0.802,-0.8009,-0.7995,-0.7991,-0.7938,-0.7947,-0.794,-0.7928,-0.7875,-0.7874,-0.7872,-0.7874,-0.7872,-0.7871,0,0,0,0,0,0,-0.8129,-0.8103,-0.8101,-0.8073,-0.8055,-0.8031,-0.8018,-0.8014,-0.7994,-0.7994,-0.798,-0.7974,-0.7948,-0.7935,-0.7946,-0.7902,-0.7907,-0.7904,-0.7911,-0.7909,-0.7907,-0.791,-0.7944,0,0,0,0,0,-0.8127,-0.8108,-0.8086,-0.8063,-0.8055,-0.8038,-0.8026,-0.8018,-0.7999,-0.7991,-0.7975,-0.7956,-0.7935,-0.7921,-0.7901,-0.7872,-0.7866,-0.7861,-0.7859,-0.7858,-0.7856,-0.784,-0.7837,-0.7867,-0.7867,-0.7867,0,0,-0.8121,-0.8105,-0.8093,-0.8064,-0.8049,-0.8029,-0.8031,-0.801,-0.7995,-0.7988,-0.7961,-0.7949,-0.7927,-0.7899,-0.7886,-0.7888,-0.7846,-0.7856,-0.7856,-0.7854,-0.7838,-0.7835,-0.7833,-0.7866,-0.7866,-0.7866,0,0,-0.8101,-0.8087,-0.8067,-0.8052,-0.8031,-0.802,-0.8015,-0.7992,-0.7984,-0.7957,-0.7951,-0.7933,-0.7897,-0.7882,-0.7869,-0.7845,-0.7841,-0.7839,-0.7831,-0.7816,-0.7813,-0.7811,-0.7802,-0.7799,-0.7837,-0.7837,-0.7837,0,-0.8097,-0.8067,-0.8056,-0.8036,-0.8023,-0.8017,-0.7996,-0.7982,-0.7955,-0.7946,-0.7949,-0.7904,-0.7889,-0.7857,-0.7852,-0.7842,-0.7836,-0.7841,-0.7815,-0.7812,-0.781,-0.7801,-0.7798,-0.7836,-0.7836,-0.7836,-0.7836,0,-0.8063,-0.8043,-0.8029,-0.8003,-0.7989,-0.7968,-0.7954,-0.7941,-0.7935,-0.7924,-0.7898,-0.7879,-0.7855,-0.7847,-0.7841,-0.7815,-0.7817,-0.7818,-0.7822,-0.7807,-0.7799,-0.7795,-0.7836,-0.7836,-0.7836,-0.7836,0,0,-0.8042,-0.8012,-0.8007,-0.7995,-0.7972,-0.7956,-0.7935,-0.7912,-0.7901,-0.7883,-0.7865,-0.7836,-0.7836,-0.7822,-0.7814,-0.7801,-0.7783,-0.7803,-0.7802,-0.7799,-0.7753,-0.7752,-0.7749,-0.7781,-0.778,-0.7779,-0.7755,0,-0.8018,-0.7982,-0.7972,-0.7941,-0.7922,-0.7916,-0.7898,-0.7882,-0.7871,-0.7853,-0.7841,-0.7821,-0.7823,-0.7815,-0.7802,-0.7788,-0.7773,-0.779,-0.7763,-0.7762,-0.7768,-0.7744,-0.7743,-0.7721,-0.7751,-0.7751,-0.7751,0,-0.7986,-0.7968,-0.7935,-0.7914,-0.7906,-0.789,-0.7869,-0.7852,-0.7833,-0.7826,-0.7812,-0.7805,-0.7783,-0.779,-0.776,-0.7771,-0.776,-0.7752,-0.7751,-0.7747,-0.7755,-0.7739,-0.7713,-0.771,-0.7745,-0.7746,-0.7746,0,-0.7973,-0.7941,-0.7917,-0.7907,-0.7883,-0.7872,-0.7861,-0.7843,-0.783,-0.7812,-0.7803,-0.7782,-0.777,-0.7754,-0.7742,-0.7749,-0.7713,-0.7719,-0.7706,-0.7706,-0.7698,-0.7698,-0.7669,-0.7692,-0.7692,-0.7692,-0.7692,0,-0.7948,-0.7927,-0.7911,-0.7896,-0.7874,-0.7863,-0.7841,-0.783,-0.7814,-0.7797,-0.7791,-0.7775,-0.7761,-0.7743,-0.7733,-0.7709,-0.7704,-0.7698,-0.7695,-0.7698,-0.7699,-0.7689,-0.769,-0.7691,-0.7691,-0.7692,-0.7692,0,-0.7929,-0.7918,-0.7891,-0.7871,-0.7865,-0.7849,-0.7831,-0.7817,-0.7807,-0.7785,-0.7779,-0.7763,-0.7742,-0.7729,-0.7701,-0.7695,-0.7669,-0.7667,-0.7675,-0.7674,-0.7662,-0.7663,-0.7625,-0.7619,-0.7647,-0.7646,-0.7646,0,-0.7913,-0.7898,-0.7876,-0.7864,-0.7854,-0.7835,-0.7822,-0.7811,-0.7798,-0.7776,-0.7764,-0.7743,-0.7725,-0.7691,-0.7676,-0.7656,-0.7653,-0.7641,-0.765,-0.7653,-0.7652,-0.7653,-0.7651,-0.7639,-0.7639,-0.7639,-0.7639,0,-0.7886,-0.7881,-0.7863,-0.7843,-0.7828,-0.7812,-0.7796,-0.7787,-0.7773,-0.7759,-0.7737,-0.7724,-0.7697,-0.7675,-0.7653,-0.7642,-0.7638,-0.7637,-0.7632,-0.7634,-0.7639,-0.7636,-0.767,-0.7637,-0.7637,-0.7637,-0.7638,-0.7638,-0.7868,-0.7854,-0.7836,-0.7817,-0.7804,-0.7789,-0.7774,-0.7763,-0.7745,-0.7722,-0.7717,-0.7694,-0.7677,-0.7647,-0.7635,-0.7617,-0.7619,-0.7613,-0.7611,-0.761,-0.7609,-0.7643,-0.7613,-0.7613,-0.7613,-0.7613,-0.7613,0,-0.7839,-0.7828,-0.781,-0.7788,-0.7773,-0.7772,-0.7754,-0.7741,-0.7721,-0.7706,-0.7688,-0.7664,-0.7643,-0.7628,-0.7607,-0.7595,-0.7593,-0.759,-0.759,-0.7588,-0.7609,-0.7614,-0.7592,-0.7592,-0.7592,-0.7592,-0.7592,-0.7592,-0.7823,-0.7799,-0.7793,-0.7763,-0.7751,-0.773,-0.772,-0.7706,-0.7693,-0.7666,-0.7649,-0.764,-0.7624,-0.7602,-0.7583,-0.7579,-0.7571,-0.7568,-0.7564,-0.7584,-0.7586,-0.7588,-0.7593,-0.7567,-0.7567,-0.7544,-0.7544,-0.7543]},{"header":{"parameterUnit":"m.s-1","parameterCategory":1,"la1":30.2991,"la2":30.254,"lo1":-89.0895,"lo2":-89.0444,"dx":0.0017,"dy":0.0017,"nx":28,"ny":28,"refTime":"2023-01-30T15:00:00:Z","depth":0,"parameterNumber":3,"parameterNumberName":"V-component_of_WINDS"},"data":[0,0,0,0,0,0,0,0,0,0,0,0,0,0,0,0,0,0,0,0,0,0,0,0,0,0,0,0,0,0,0,0,0,0,0,0,0,0,0,0,0,0,0,0,0,0,0,0,0,0,0,0,0,0,0,0,0,0,2.0954,2.0954,0,2.0955,2.0955,2.0955,2.0919,2.0918,2.0917,2.0916,2.0916,2.0917,2.0918,0,0,0,0,0,0,0,0,0,0,0,0,0,2.092,2.0921,2.0954,2.0954,2.0954,2.0955,2.0955,2.0955,2.0919,2.0918,2.0917,2.0916,2.0916,2.0917,2.0918,0,0,0,0,0,0,0,0,0,0,0,0,0,2.093,2.0921,2.0954,2.0936,2.0935,2.0955,2.0955,2.0955,2.0919,2.0918,2.0917,2.0915,2.0916,2.0917,2.0918,2.0956,0,0,2.0922,2.0923,0,0,0,0,0,0,0,0,2.0929,2.0931,2.0939,2.0938,2.0936,2.0936,2.0943,2.0955,2.092,2.0925,2.0916,2.0915,2.0924,2.0924,2.0928,2.0956,2.0956,2.0923,2.0923,2.0924,2.0924,0,0,0,0,0,0,0,2.0928,2.0931,2.0955,2.0939,2.0937,2.0928,2.0928,2.0945,2.0933,2.0925,2.0922,2.0923,2.0923,2.0927,2.0927,2.0956,2.0922,2.0924,2.0925,2.0925,2.1014,2.1016,0,0,0,0,0,0,2.093,2.093,2.0955,2.0955,2.0929,2.093,2.093,2.0937,2.0932,2.093,2.0924,2.0921,2.0925,2.0926,2.0927,2.0971,2.0924,2.0925,2.0926,2.1013,2.1015,2.1016,0,0,0,0,0,0,2.093,2.0933,2.0955,2.0942,2.0944,2.0932,2.0941,2.0938,2.0942,2.0932,2.0929,2.093,2.0924,2.0925,2.0949,2.097,2.0926,2.0927,2.1011,2.1013,2.1015,2.1057,0,0,0,0,0,0,2.0929,2.0933,2.0947,2.0942,2.0945,2.0977,2.0942,2.0939,2.0944,2.0941,2.0937,2.0935,2.0923,2.0947,2.095,2.0971,2.0928,2.1009,2.1012,2.1015,2.1054,2.1061,2.1067,0,0,0,0,0,2.0928,2.0959,2.0948,2.0951,2.0962,2.0978,2.0979,2.0965,2.0946,2.096,2.0954,2.0935,2.0967,2.095,2.0953,2.0975,2.1007,2.1011,2.1014,2.1051,2.106,2.1067,0,0,0,0,0,0,2.0965,2.0958,2.0946,2.0976,2.0978,2.0972,2.0989,2.0974,2.0981,2.0977,2.0958,2.0958,2.0984,2.0982,2.0962,2.1011,2.0984,2.0988,2.1011,2.1019,2.1025,2.1025,2.0929,0,0,0,0,0,2.0977,2.0991,2.0983,2.1011,2.1012,2.1001,2.1007,2.0996,2.0997,2.0997,2.0993,2.0994,2.1004,2.1012,2.1021,2.1054,2.1052,2.107,2.1077,2.1082,2.1086,2.1103,2.1111,2.1028,2.1028,2.1028,0,0,2.1002,2.0999,2.1009,2.1018,2.1018,2.1033,2.1001,2.1018,2.1028,2.0999,2.1021,2.1018,2.1019,2.1047,2.106,2.1046,2.1109,2.1086,2.1091,2.1091,2.1107,2.1115,2.1122,2.103,2.103,2.1029,0,0,2.1054,2.1053,2.1076,2.1077,2.1078,2.107,2.1076,2.1072,2.1069,2.1091,2.107,2.1082,2.11,2.1101,2.1104,2.1157,2.114,2.1161,2.1194,2.1211,2.1217,2.1223,2.1242,2.1249,2.1165,2.1165,2.1165,0,2.1084,2.1105,2.109,2.1107,2.1112,2.1088,2.1111,2.1112,2.1116,2.112,2.1105,2.1127,2.1126,2.1154,2.1167,2.1171,2.1176,2.1161,2.1218,2.1223,2.1228,2.1246,2.1253,2.1167,2.1167,2.1167,2.1167,0,2.1141,2.1156,2.1175,2.1179,2.1186,2.1207,2.1194,2.1203,2.1192,2.1185,2.1208,2.1206,2.1214,2.122,2.1209,2.1247,2.1238,2.1221,2.1194,2.1239,2.1255,2.1262,2.1171,2.117,2.1169,2.1169,0,0,2.1216,2.1213,2.122,2.1222,2.1221,2.1232,2.1252,2.126,2.1268,2.1272,2.1287,2.1304,2.1288,2.1291,2.128,2.1295,2.1337,2.1276,2.1275,2.1287,2.1379,2.1392,2.14,2.1326,2.1327,2.1328,2.1379,0,2.1266,2.1299,2.1286,2.132,2.1333,2.1311,2.1328,2.1329,2.1324,2.1335,2.1329,2.1341,2.1319,2.1321,2.1335,2.1329,2.1355,2.1325,2.134,2.1341,2.134,2.1408,2.1422,2.147,2.1385,2.1386,2.1387,0,2.1328,2.1335,2.137,2.1368,2.1373,2.1389,2.1395,2.1406,2.1407,2.1403,2.1407,2.1393,2.1411,2.1385,2.141,2.139,2.1395,2.1394,2.1395,2.1395,2.1366,2.141,2.1484,2.1492,2.1397,2.1396,2.1395,0,2.1378,2.1397,2.142,2.1423,2.142,2.1432,2.1431,2.1431,2.1437,2.1444,2.1447,2.1455,2.146,2.1466,2.1454,2.1436,2.1481,2.1454,2.1477,2.1478,2.1487,2.1487,2.1563,2.1492,2.1492,2.1491,2.1491,0,2.1435,2.1458,2.1443,2.1457,2.1482,2.1467,2.1492,2.1489,2.1489,2.1502,2.1483,2.1496,2.148,2.1491,2.1482,2.1504,2.1506,2.1503,2.15,2.1504,2.1505,2.1507,2.1504,2.1493,2.1493,2.1493,2.1492,0,2.1495,2.1486,2.151,2.1507,2.1506,2.1525,2.1521,2.1535,2.1528,2.1546,2.1549,2.1539,2.1551,2.154,2.1552,2.1546,2.1576,2.1568,2.1575,2.1573,2.1597,2.1595,2.1677,2.1687,2.161,2.1611,2.1611,0,2.1532,2.1549,2.1547,2.1555,2.1556,2.1569,2.1575,2.1562,2.1569,2.1572,2.1585,2.1596,2.1604,2.1624,2.1618,2.1627,2.162,2.1648,2.1621,2.1625,2.162,2.1619,2.162,2.1653,2.1654,2.1655,2.1655,0,2.1598,2.1593,2.1603,2.1612,2.162,2.1626,2.163,2.1638,2.1624,2.1633,2.1646,2.1652,2.1664,2.1675,2.1682,2.1682,2.1666,2.1664,2.167,2.1674,2.1678,2.1676,2.159,2.1662,2.1661,2.1661,2.1661,2.166,2.1647,2.1661,2.1662,2.1674,2.1677,2.1681,2.1694,2.169,2.17,2.1709,2.1701,2.1716,2.1717,2.1725,2.1726,2.1738,2.1726,2.1735,2.1737,2.1739,2.1743,2.1676,2.1739,2.1739,2.1739,2.1739,2.1738,0,2.1711,2.1712,2.1723,2.173,2.174,2.1725,2.173,2.1738,2.1752,2.1755,2.1764,2.1778,2.1789,2.1784,2.1793,2.1804,2.1797,2.1807,2.1805,2.1806,2.1753,2.1746,2.1812,2.1812,2.1812,2.1812,2.1812,2.1812,2.1746,2.1769,2.1765,2.1789,2.1788,2.1804,2.1808,2.1812,2.1814,2.1832,2.1841,2.1838,2.1837,2.1846,2.1856,2.1854,2.1858,2.187,2.1866,2.1817,2.1809,2.1802,2.1797,2.1871,2.1871,2.1918,2.1918,2.1919]}]]